Content
SEND FEEDBACK

Daily
Averages
Monthly
Summary
Mexico

PLAYA DEL CARMEN, QUINTANA ROO


Home > North America > Mexico > Quintana Roo
Elevation: 30 feet     Latitude: 20 38N     Longitude: 087 04W

WEATHER
 
SELECT A DAY
Number of Records: 196,286;   Date Range: 2/21/06 - 7/23/14
 
SHARE

PRINT THIS DATA

[ ← Previous Day ]
WEATHER ALMANAC - OCTOBER 19, 2013
[ Next Day → ]
[ °C ]   °F
Weather ElementAverageHighLow
Temperature79.4 °F87.8 °F (12:35 pm)73.4 °F (3:15 am)
Dewpoint32.7 °F78.8 °F (8:55 pm) (7:00 pm)
Humidity62.1 %100 % (8:55 pm)46 % (2:55 pm)
Barometer29.95 in29.99 in (9:55 am)29.90 in (4:15 pm)
Wind Speed3 mph6.9 mph (9:35 am)
Weather ElementAverage
Visibility9.8 mi
Wind DirectionESE (124.5 °)

Weather ElementTotal
Precipitation---
Cooling Degree Days15.6 (Base 65)
Growing Degree Days30.6 (Base 50)
Averaged from 66 records on October 19, 2013
WEATHER CONDITIONS BREAKOUT
WIND DIRECTION BREAKOUT
WEATHER BY HOUR - OCTOBER 19, 2013
[ °C ]   °F
Local TimeTemperatureDewpointHumidityBarometerVisibilityWind DirectionWind SpeedGust SpeedPrecipitationEventsConditions
12:35 AM75.2 °F0.0 °F29.98 in10.0 miESE (120°)4.6 mphClear
12:55 AM77.0 °F0.0 °F29.98 in10.0 miSE (130°)4.6 mphClear
1:15 AM75.2 °F0.0 °F29.98 in10.0 miESE (120°)3.5 mphClear
1:35 AM75.2 °F0.0 °F29.97 in10.0 miSE (130°)4.6 mphClear
1:55 AM75.2 °F0.0 °F29.97 in10.0 miSE (130°)5.8 mphScattered Clouds
2:15 AM75.2 °F0.0 °F29.97 in10.0 miSE (130°)3.5 mphScattered Clouds
2:35 AM75.2 °F0.0 °F29.96 in10.0 miCalmClear
2:55 AM75.2 °F0.0 °F29.96 in10.0 miCalmClear
3:15 AM73.4 °F0.0 °F29.96 in10.0 miCalmScattered Clouds
3:35 AM73.4 °F0.0 °F29.96 in10.0 miCalmMostly Cloudy
3:55 AM73.4 °F0.0 °F29.96 in10.0 miCalmMostly Cloudy
4:15 AM73.4 °F0.0 °F29.96 in10.0 miEast (100°)3.5 mphScattered Clouds
4:35 AM73.4 °F0.0 °F29.96 in10.0 miESE (110°)3.5 mphClear
4:55 AM73.4 °F0.0 °F29.96 in10.0 miCalmScattered Clouds
5:15 AM73.4 °F0.0 °F29.96 in10.0 miCalmScattered Clouds
5:35 AM73.4 °F0.0 °F29.96 in10.0 miCalmScattered Clouds
5:55 AM73.4 °F0.0 °F29.96 in10.0 miESE (110°)3.5 mphScattered Clouds
6:15 AM73.4 °F0.0 °F29.96 in10.0 miESE (120°)3.5 mphMostly Cloudy
6:35 AM73.4 °F0.0 °F29.96 in10.0 miCalmScattered Clouds
6:55 AM73.4 °F0.0 °F29.96 in10.0 miSE (130°)3.5 mphClear
7:15 AM73.4 °F0.0 °F29.96 in10.0 miSE (130°)3.5 mphClear
7:35 AM73.4 °F0.0 °F29.97 in10.0 miCalmClear
7:55 AM73.4 °F0.0 °F29.97 in10.0 miESE (120°)3.5 mphClear
8:15 AM75.2 °F0.0 °F29.97 in10.0 miESE (120°)3.5 mphClear
8:35 AM77.0 °F0.0 °F29.98 in10.0 miSE (140°)3.5 mphClear
8:55 AM78.8 °F0.0 °F29.98 in10.0 miSSE (150°)3.5 mphClear
9:15 AM80.6 °F71.6 °F74 %29.98 in10.0 miSSE (160°)4.6 mphClear
9:35 AM80.6 °F71.6 °F74 %29.98 in10.0 miSSE (160°)6.9 mphClear
9:55 AM82.4 °F71.6 °F70 %29.99 in10.0 miSSE (160°)6.9 mphScattered Clouds
10:15 AM84.2 °F69.8 °F62 %29.99 in10.0 miSouth (170°)6.9 mphScattered Clouds
10:35 AM82.4 °F69.8 °F66 %29.99 in10.0 miSSE (160°)6.9 mphMostly Cloudy
10:55 AM82.4 °F69.8 °F66 %29.99 in10.0 miSSE (160°)5.8 mphOvercast
11:15 AM82.4 °F69.8 °F66 %29.99 in10.0 miSouth (170°)4.6 mphOvercast
11:35 AM84.2 °F68.0 °F58 %29.99 in10.0 miSouth (170°)4.6 mphOvercast
11:55 AM86.0 °F69.8 °F58 %29.99 in10.0 miSSW (210°)5.8 mphMostly Cloudy
12:15 PM86.0 °F66.2 °F51 %29.98 in10.0 miSSW (200°)4.6 mphOvercast
12:35 PM87.8 °F66.2 °F49 %29.97 inSouth (170°)5.8 mph
12:55 PM87.8 °F66.2 °F49 %29.96 in10.0 miSSW (200°)6.9 mphScattered Clouds
2:55 PM87.8 °F64.4 °F46 %29.91 in10.0 miWSW (250°)3.5 mphOvercast
3:15 PM87.8 °F66.2 °F49 %29.91 in10.0 miWSW (250°)5.8 mphOvercast
3:35 PM87.8 °F66.2 °F49 %29.91 in10.0 miCalmOvercast
3:55 PM87.8 °F66.2 °F49 %29.91 in10.0 miNW (310°)3.5 mphMostly Cloudy
4:15 PM87.8 °F68.0 °F52 %29.90 in10.0 miWNW (290°)4.6 mphOvercast
4:35 PM87.8 °F68.0 °F52 %29.90 in10.0 miCalmOvercast
4:55 PM87.8 °F68.0 °F52 %29.91 in10.0 miWest (280°)3.5 mphOvercast
5:15 PM86.0 °F69.8 °F58 %29.91 in10.0 miNNW (340°)3.5 mphOvercast
5:35 PM86.0 °F69.8 °F58 %29.91 in10.0 miNNW (340°)4.6 mphOvercast
5:55 PM86.0 °F69.8 °F58 %29.91 in10.0 miNNW (330°)4.6 mphMostly Cloudy
6:15 PM84.2 °F71.6 °F66 %29.91 in10.0 miNNW (330°)5.8 mphMostly Cloudy
6:35 PM84.2 °F71.6 °F66 %29.91 in10.0 miNW (310°)5.8 mphMostly Cloudy
6:55 PM82.4 °F71.6 °F70 %29.91 in10.0 miCalmOvercast
7:15 PM82.4 °F71.6 °F70 %29.92 in10.0 miNW (320°)3.5 mphMostly Cloudy
7:35 PM82.4 °F71.6 °F70 %29.93 in10.0 miWNW (300°)3.5 mphOvercast
7:55 PM82.4 °F71.6 °F70 %29.94 in10.0 miCalmOvercast
8:15 PM80.6 °F71.6 °F74 %29.94 in10.0 miCalmRainLight Rain
8:35 PM80.6 °F71.6 °F74 %29.94 in10.0 miNorth (360°)4.6 mphOvercast
8:55 PM78.8 °F78.8 °F100 %29.95 in10.0 miNE (40°)3.5 mphOvercast
9:15 PM77.0 °F0.0 °F29.95 in10.0 miCalmOvercast
9:35 PM77.0 °F0.0 °F29.95 in7.0 miNE (40°)3.5 mphScattered Clouds
9:55 PM77.0 °F0.0 °F29.95 in10.0 miNE (50°)3.5 mphClear
10:15 PM77.0 °F0.0 °F29.94 in10.0 miCalmClear
10:35 PM77.0 °F0.0 °F29.94 in10.0 miCalmClear
10:55 PM75.2 °F0.0 °F29.94 in7.0 miCalmClear
11:15 PM75.2 °F0.0 °F29.95 in10.0 miCalmClear
11:35 PM75.2 °F0.0 °F29.95 in7.0 miCalmClear
11:55 PM75.2 °F0.0 °F29.95 in7.0 miCalmClear
Hourly data recorded from KPCM, located miles away from Playa del Carmen, Quintana Roo







STORIES FROM OUR PARTNERS